Weather History for Price, UT

Change the Weather History Date:

Wednesday, February 13, 2013

  Actual Average Record
Temperature  
Mean Temperature 28 °F -  
Max Temperature 37 °F 36 °F 58 °F (1971)
Min Temperature 18 °F 19 °F 3 °F (2004)
Degree Days  
Heating Degree Days 38    
Moisture  
Dew Point 16 °F    
Average Humidity 58    
Maximum Humidity 71    
Minimum Humidity 51    
Precipitation  
Precipitation 0.00 in - - ()
Sea Level Pressure  
Sea Level Pressure 30.31 in    
Wind  
Wind Speed 9 mph (NE)    
Max Wind Speed 17 mph    
Max Gust Speed 26 mph    
Visibility 10 miles    
Events      
Averages and records for this station are not official NWS values.
T = Trace of Precipitation, MM = Missing Value Source: NWS Daily Summary

Daily Weather History Graph

Daily Weather History Graph

Search for Another Location

Airport:

Trip Planner

Search our weather history database for the weather conditions in past years. The results will help you decide how hot, cold, wet, or windy it might be!

Date:

Astronomy

Feb. 13, 2013 Rise Set
Actual Time 7:17 AM MST 5:57 PM MST
Civil Twilight 6:49 AM MST 6:25 PM MST
Nautical Twilight 6:18 AM MST 6:56 PM MST
Astronomical Twilight 5:46 AM MST 7:28 PM MST
Moon 8:49 AM MST (2/13) 10:02 PM MST (2/13)
Length of Visible Light 11h 35m
Length of Day
10h 40m
Waxing Crescent, 14% of the Moon is Illuminated
Feb 13
Waxing Crescent
Feb 17
First Quarter
Feb 25
Full
Mar 4
Last Quarter
Mar 11
New

Hourly Weather History & Observations

Time (MST) Temp. Windchill Dew Point Humidity Pressure Visibility Wind Dir Wind Speed Gust Speed Precip Events Conditions
12:53 AM 28.0 °F 17.5 °F 14.0 °F 56% 30.32 in 10.0 mi NNW 12.7 mph 25.3 mph N/A   Clear
1:53 AM 28.0 °F 17.5 °F 15.1 °F 58% 30.32 in 10.0 mi NW 12.7 mph 20.7 mph N/A   Clear
2:53 AM 21.0 °F 12.4 °F 10.9 °F 65% 30.34 in 10.0 mi NE 6.9 mph - N/A   Clear
3:53 AM 19.9 °F 11.1 °F 10.9 °F 68% 30.33 in 10.0 mi ENE 6.9 mph - N/A   Clear
4:53 AM 21.0 °F 14.6 °F 10.9 °F 65% 30.33 in 10.0 mi NNE 4.6 mph - N/A   Clear
5:53 AM 18.0 °F 11.1 °F 10.0 °F 71% 30.36 in 10.0 mi East 4.6 mph - N/A   Clear
6:53 AM 19.0 °F 10.0 °F 10.0 °F 68% 30.35 in 10.0 mi East 6.9 mph - N/A   Clear
7:53 AM 19.0 °F 11.1 °F 10.0 °F 68% 30.38 in 10.0 mi ENE 5.8 mph - N/A   Clear
8:53 AM 25.0 °F 20.7 °F 12.0 °F 58% 30.38 in 10.0 mi ESE 3.5 mph - N/A   Clear
9:53 AM 27.0 °F 20.5 °F 12.0 °F 53% 30.38 in 10.0 mi East 5.8 mph - N/A   Clear
10:53 AM 26.1 °F 20.5 °F 14.0 °F 60% 30.38 in 10.0 mi ESE 4.6 mph - N/A   Clear
11:53 AM 28.0 °F 21.7 °F 16.0 °F 61% 30.36 in 10.0 mi South 5.8 mph - N/A   Clear
12:53 PM 30.0 °F 26.5 °F 17.1 °F 59% 30.32 in 10.0 mi ESE 3.5 mph - N/A   Clear
1:53 PM 34.0 °F 28.8 °F 19.0 °F 54% 30.28 in 10.0 mi ENE 5.8 mph - N/A   Clear
2:53 PM 34.0 °F 27.2 °F 19.9 °F 56% 30.29 in 10.0 mi East 8.1 mph - N/A   Clear
3:53 PM 36.0 °F 32.1 °F 19.9 °F 52% 30.29 in 10.0 mi SE 4.6 mph - N/A   Clear
4:46 PM 37.4 °F 28.2 °F 21.2 °F 52% 30.15 in 10.0 mi NW 16.1 mph 26.5 mph N/A   Clear
4:53 PM 37.9 °F 28.9 °F 21.0 °F 51% 30.26 in 10.0 mi NW 16.1 mph 24.2 mph N/A   Clear
5:53 PM 35.1 °F 25.9 °F 19.9 °F 54% 30.27 in 10.0 mi NW 13.8 mph - N/A   Clear
6:53 PM 34.0 °F 28.8 °F 19.9 °F 56% 30.29 in 10.0 mi NNW 5.8 mph - N/A   Clear
7:53 PM 34.0 °F 28.8 °F 19.0 °F 54% 30.30 in 10.0 mi Variable 5.8 mph - N/A   Clear
8:53 PM 33.1 °F 23.9 °F 19.0 °F 56% 30.27 in 10.0 mi NNW 12.7 mph 20.7 mph N/A   Clear
9:53 PM 33.1 °F 30.0 °F 18.0 °F 54% 30.27 in 10.0 mi Variable 3.5 mph - N/A   Clear
10:53 PM 33.1 °F 22.2 °F 18.0 °F 54% 30.27 in 10.0 mi NW 17.3 mph 25.3 mph N/A   Clear
11:53 PM 33.1 °F 23.9 °F 19.0 °F 56% 30.26 in 10.0 mi NW 12.7 mph 25.3 mph N/A   Clear